Lake Charles, LA

12:52 AM CDT on April 26, 2018 (GMT -0500)
Chennault International

Weather History for KCWF - November, 2012

Change the Weather History Date:

Tuesday, November 27, 2012

  Actual Average Record
Temperature  
Mean Temperature 56 °F -  
Max Temperature 66 °F 67 °F 78 °F (2001)
Min Temperature 45 °F 50 °F 32 °F (2010)
Degree Days  
Heating Degree Days 9    
Growing Degree Days 6 (Base 50)    
Moisture  
Dew Point 54 °F    
Average Humidity 88    
Maximum Humidity 95    
Minimum Humidity 63    
Precipitation  
Precipitation 0.20 in - - ()
Sea Level Pressure  
Sea Level Pressure 30.21 in    
Wind  
Wind Speed 5 mph (NNE)    
Max Wind Speed 15 mph    
Max Gust Speed 22 mph    
Visibility 8 miles    
Events Thunderstorm    
Averages and records for this station are not official NWS values.
T = Trace of Precipitation, MM = Missing Value Source: NWS Daily Summary

Daily Weather History Graph

Daily Weather History Graph

Search for Another Location

Airport or City:

Astronomy

Nov. 27, 2012 Rise Set
Actual Time 6:48 AM CST 5:12 PM CST
Civil Twilight 6:22 AM CST 5:38 PM CST
Nautical Twilight 5:53 AM CST 6:07 PM CST
Astronomical Twilight 5:24 AM CST 6:36 PM CST
Moon 4:43 PM CST (11/27) 5:55 AM CST (11/27)
Length of Visible Light 11h 15m
Length of Day
10h 23m
Waxing Gibbous, 99% of the Moon is Illuminated
Nov 27
Waxing Gibbous
Nov 28
Full
Dec 6
Last Quarter
Dec 13
New
Dec 19
First Quarter

Hourly Weather History & Observations

Time (CST) Temp. Windchill Dew Point Humidity Pressure Visibility Wind Dir Wind Speed Gust Speed Precip Events Conditions
12:15 AM 64.4 °F - 62.8 °F 94% 30.07 in 0.8 mi Calm Calm - N/A   Overcast
12:35 AM 64.9 °F - 63.5 °F 95% 30.07 in 0.8 mi Calm Calm - N/A   Overcast
12:55 AM 64.8 °F - 63.1 °F 94% 30.07 in 0.5 mi ESE 3.5 mph - N/A   Overcast
1:15 AM 65.1 °F - 63.5 °F 94% 30.06 in 1.0 mi Calm Calm - N/A   Overcast
1:35 AM 64.6 °F - 63.0 °F 94% 30.05 in 1.0 mi ESE 5.8 mph - N/A Thunderstorm Overcast
1:55 AM 64.8 °F - 63.1 °F 94% 30.04 in - East 3.5 mph - N/A Thunderstorm Thunderstorm
2:15 AM 66.7 °F - 65.1 °F 95% 30.07 in - WSW 10.4 mph - 0.15 in Thunderstorm Thunderstorm
2:35 AM 65.5 °F - 63.7 °F 94% 30.07 in 10.0 mi NNW 9.2 mph - 0.17 in Thunderstorm Thunderstorm
2:55 AM 64.4 °F - 61.3 °F 90% 30.06 in 10.0 mi North 6.9 mph - 0.17 in Thunderstorm Mostly Cloudy
3:15 AM 63.9 °F - 60.8 °F 90% 30.06 in 10.0 mi NE 4.6 mph - N/A   Mostly Cloudy
3:35 AM 63.5 °F - 61.0 °F 91% 30.04 in 10.0 mi ESE 12.7 mph - 0.01 in   Overcast
3:55 AM 63.1 °F - 60.4 °F 91% 30.08 in 10.0 mi Calm Calm - 0.01 in   Overcast
4:15 AM 62.6 °F - 60.1 °F 91% 30.10 in 10.0 mi Calm Calm - N/A   Overcast
4:35 AM 62.8 °F - 60.8 °F 93% 30.10 in 10.0 mi East 3.5 mph - 0.01 in   Overcast
4:55 AM 63.0 °F - 60.8 °F 93% 30.11 in 10.0 mi Calm Calm - 0.02 in   Overcast
6:00 AM 62.6 °F - 60.8 °F 94% 30.14 in 10.0 mi West 6.9 mph - N/A   Mostly Cloudy
6:54 AM 62.6 °F - 59.0 °F 88% 30.16 in 10.0 mi WNW 6.9 mph - N/A   Mostly Cloudy
7:50 AM 62.6 °F - 60.8 °F 94% 30.20 in 10.0 mi NNW 8.1 mph - N/A   Mostly Cloudy
8:10 AM 62.6 °F - 59.0 °F 88% 30.21 in 3.0 mi North 11.5 mph - N/A   Overcast
8:50 AM 59.0 °F - 55.4 °F 88% 30.23 in 2.0 mi North 15.0 mph 21.9 mph N/A   Overcast
9:50 AM 55.4 °F - 53.6 °F 94% 30.27 in 6.0 mi North 9.2 mph - N/A   Overcast
10:50 AM 53.6 °F - 51.8 °F 94% 30.28 in 6.0 mi North 10.4 mph - N/A   Overcast
11:10 AM 53.6 °F - 51.8 °F 94% 30.28 in 6.0 mi North 10.4 mph - N/A   Overcast
11:50 AM 55.4 °F - 51.8 °F 88% 30.26 in 7.0 mi North 12.7 mph - N/A   Overcast
12:50 PM 57.2 °F - 53.6 °F 88% 30.23 in 7.0 mi NNW 11.5 mph - N/A   Overcast
1:49 PM 57.2 °F - 50.0 °F 77% 30.23 in 7.0 mi North 5.8 mph - N/A   Overcast
2:50 PM 59.0 °F - 50.0 °F 72% 30.23 in 10.0 mi North 8.1 mph - N/A   Overcast
3:50 PM 60.8 °F - 48.2 °F 63% 30.24 in 10.0 mi NNE 9.2 mph - N/A   Scattered Clouds
4:45 PM 57.2 °F - 48.2 °F 72% 30.26 in 10.0 mi North 5.8 mph - N/A   Scattered Clouds
5:45 PM 55.4 °F - 48.2 °F 77% 30.28 in 10.0 mi North 6.9 mph - N/A   Overcast
6:50 PM 55.4 °F - 46.4 °F 72% 30.31 in 10.0 mi NNE 5.8 mph - N/A   Mostly Cloudy
7:50 PM 53.6 °F - 46.4 °F 77% 30.32 in 10.0 mi NNE 4.6 mph - N/A   Clear
8:55 PM 51.8 °F - 46.4 °F 82% 30.33 in 10.0 mi NE 6.9 mph - N/A   Clear
9:15 PM 50.0 °F - 45.0 °F 83% 30.34 in 10.0 mi ENE 4.6 mph - N/A   Clear
9:35 PM 49.1 °F - 44.6 °F 84% 30.34 in 10.0 mi NE 5.8 mph - N/A   Clear
9:50 PM 48.2 °F - 44.6 °F 87% 30.35 in 10.0 mi ENE 4.6 mph - N/A   Clear
9:55 PM 48.4 °F - 44.6 °F 87% 30.35 in 10.0 mi ENE 4.6 mph - N/A   Clear
10:15 PM 47.8 °F - 44.2 °F 87% 30.35 in 10.0 mi NE 3.5 mph - N/A   Clear
10:35 PM 47.3 °F - 44.2 °F 89% 30.34 in 10.0 mi NNE 3.5 mph - N/A   Clear
10:55 PM 47.3 °F - 43.9 °F 88% 30.35 in 10.0 mi NE 3.5 mph - N/A   Clear
11:15 PM 46.6 °F - 43.2 °F 88% 30.35 in 10.0 mi NE 4.6 mph - N/A   Clear
11:35 PM 46.4 °F 43.5 °F 43.0 °F 88% 30.35 in 10.0 mi NNE 5.8 mph - N/A   Clear
11:55 PM 45.9 °F 44.6 °F 42.8 °F 89% 30.36 in 10.0 mi NNE 3.5 mph - N/A   Clear